Theta_e
336 339 341 346 348 348 347 347 346 347 347 349 350 350 349 349 349 349 349 349 349 350 349 349 349 350 349 348 349 349 349 349 349 348 349 349 349 350 349 349 350 349 349 349 349 350 349 349 350 349 350 349 350 349 349 347 346 345 344 343 343 345 346 345 345 344 346 345 345 345 346 345 344 343 346 345 346 348 348 349 349 347 347 347 348
336 340 342 343 347 346 346 346 347 349 350 349 348 350 349 350 350 349 349 349 349 349 349 349 348 348 348 349 347 348 348 348 349 348 348 349 348 349 349 349 349 349 349 348 348 349 349 348 349 349 348 348 348 348 347 346 346 343 342 343 344 345 345 344 343 345 347 347 346 346 344 346 345 343 345 344 343 345 347 348 349 347 347 348 349
339 340 341 342 346 347 346 346 347 348 349 349 349 349 349 350 349 348 348 348 347 347 348 348 348 348 347 348 349 349 348 347 347 348 348 348 348 348 349 349 348 348 348 348 347 348 349 347 346 346 345 347 346 346 346 345 345 344 343 343 343 345 344 343 343 345 345 346 346 345 345 344 344 344 345 344 343 340 341 347 349 348 346 349 349
337 339 340 342 345 345 344 344 347 348 349 349 349 349 349 348 349 349 349 348 348 347 346 348 347 348 348 348 348 348 346 346 346 346 347 347 348 348 347 348 348 347 347 347 348 347 347 345 344 342 342 345 345 346 346 344 343 343 343 345 346 344 343 343 344 344 345 345 346 344 344 343 343 344 344 343 342 342 345 348 349 348 349 349 349
337 338 340 340 340 341 344 346 348 347 348 349 349 348 348 348 348 348 347 347 347 346 346 345 346 347 347 347 348 347 347 346 346 346 346 347 347 346 348 347 347 347 347 348 347 344 342 342 341 341 341 345 346 346 346 344 343 344 344 345 345 345 344 343 344 345 346 346 346 345 342 340 341 343 342 343 343 342 343 348 348 348 349 348 348
338 339 339 339 336 342 345 346 346 346 347 347 348 348 347 347 347 347 348 348 347 347 347 346 346 346 346 346 346 346 346 345 345 345 345 346 346 346 346 347 347 346 348 346 344 343 341 341 340 341 342 343 346 347 346 344 344 345 346 346 346 345 345 344 344 344 345 346 348 345 343 344 342 342 343 344 345 347 347 348 348 348 348 347 347
338 339 339 338 339 344 347 347 346 346 347 347 347 347 347 347 347 347 348 347 347 346 346 346 346 345 345 345 346 345 345 346 346 345 345 345 345 346 346 346 347 346 345 344 344 343 343 341 341 341 341 342 345 346 345 343 343 344 345 345 345 344 344 344 344 345 347 345 340 341 343 344 344 343 344 343 346 347 347 348 347 347 346 346 345
338 339 339 338 339 345 345 346 346 346 346 346 346 346 346 346 346 347 347 346 345 345 345 345 346 345 344 345 346 345 345 345 346 346 344 344 344 345 346 347 345 345 345 344 344 344 344 344 343 342 342 341 343 344 344 344 344 344 346 345 345 345 344 344 344 346 347 341 341 340 341 342 341 342 343 346 346 347 347 347 347 346 345 345 346
336 337 337 338 339 346 346 345 345 345 345 345 345 346 346 346 346 346 346 346 345 345 345 345 344 344 344 344 345 345 345 345 345 346 345 345 344 345 345 346 346 345 344 344 344 342 343 343 343 342 342 342 343 345 343 343 344 345 345 346 345 345 345 345 345 345 346 343 343 341 341 344 344 343 345 346 346 347 348 347 345 346 346 345 344
334 334 335 337 338 345 346 346 345 346 345 345 345 345 346 346 346 346 345 345 345 345 345 344 344 344 344 344 344 344 344 345 344 346 346 346 346 345 344 345 344 344 345 345 343 344 343 340 340 341 340 341 342 344 344 344 344 344 345 345 345 345 346 345 345 345 343 342 342 342 344 344 346 345 345 345 346 347 347 347 345 345 343 345 345
332 332 333 337 340 346 347 346 346 346 346 346 345 346 345 345 345 345 345 345 344 344 344 344 344 344 344 344 344 344 344 344 344 344 344 345 345 345 345 345 344 343 344 345 345 344 343 342 342 342 341 341 340 342 341 341 341 339 342 342 344 344 343 345 346 343 342 342 342 341 342 342 343 344 346 346 346 346 344 347 345 344 344 344 345
330 331 336 341 346 347 346 346 346 346 345 345 345 344 344 344 344 345 344 344 344 344 345 344 345 344 345 345 344 344 344 344 344 344 344 344 344 344 344 344 344 344 344 344 344 343 342 341 340 342 341 341 341 341 339 339 340 340 340 343 345 346 345 345 346 343 342 342 342 343 343 341 341 344 346 345 346 344 345 346 345 345 344 345 345
328 332 336 334 336 347 346 345 345 344 344 343 344 344 344 344 344 344 344 344 344 344 344 345 344 344 344 345 344 344 344 344 344 344 344 344 344 343 343 343 343 343 343 342 342 342 342 338 338 338 341 340 341 339 337 337 337 340 342 343 345 346 346 346 344 343 342 341 341 342 343 341 342 345 345 345 344 341 342 341 345 344 345 344 344
328 330 335 335 339 347 344 344 343 344 343 343 343 343 344 343 344 344 344 344 344 344 344 344 344 344 344 344 344 344 343 344 343 344 344 343 344 344 343 343 343 343 342 341 341 342 340 340 337 339 341 340 341 341 340 338 337 339 339 341 344 345 346 345 346 343 343 342 342 343 340 338 337 342 345 343 341 341 340 340 342 343 343 344 344
331 331 333 336 335 337 344 343 344 343 343 343 343 343 343 343 343 343 343 343 343 344 344 344 344 344 343 343 343 343 344 344 344 344 343 343 343 343 344 343 343 343 343 339 340 340 341 340 340 336 337 340 339 337 339 336 337 340 338 340 342 345 346 342 344 342 341 343 343 345 339 336 338 341 341 341 342 342 339 340 340 339 341 343 343
332 333 335 333 334 335 336 346 345 344 344 345 344 343 343 343 344 343 342 342 342 341 342 342 342 343 343 343 343 342 343 343 343 343 344 344 343 344 344 344 343 343 342 342 341 340 341 341 340 338 336 336 338 337 338 333 331 336 335 338 343 344 345 344 339 340 338 340 342 344 341 337 339 342 340 340 341 340 339 340 340 340 340 342 342
334 337 333 331 333 334 335 338 343 345 342 344 343 343 343 342 342 342 341 342 341 341 340 341 341 342 344 344 344 343 343 343 343 343 343 343 343 344 344 343 343 342 343 342 341 341 340 341 342 340 338 339 339 335 338 338 339 339 336 340 343 344 345 347 338 339 338 341 342 342 341 339 340 342 340 339 340 340 339 339 341 340 340 341 342
331 333 333 332 333 335 335 333 336 334 334 337 340 343 340 342 343 342 341 341 341 341 340 340 340 340 341 342 342 343 343 343 343 343 343 342 343 343 343 343 343 343 342 342 341 340 341 341 340 340 340 340 340 338 339 340 341 342 342 341 343 343 344 345 340 338 338 342 341 342 341 343 341 343 342 341 341 340 338 340 341 341 341 342 343
329 332 334 332 332 331 332 331 334 332 330 329 329 334 340 343 342 342 342 341 339 339 339 339 339 339 339 338 338 338 340 342 343 343 342 342 342 343 343 343 343 343 343 342 341 341 341 342 342 341 339 340 339 339 341 343 344 343 343 343 343 344 344 346 341 338 339 338 340 340 340 344 343 343 344 343 342 341 341 342 341 341 341 342 342
328 328 327 327 327 326 326 326 327 326 324 323 324 326 335 340 342 341 339 338 338 338 337 336 337 337 337 337 336 333 333 334 341 343 343 343 342 342 343 342 343 343 342 342 340 340 339 339 341 340 341 339 339 342 343 344 344 345 344 343 342 343 345 344 340 338 338 339 342 338 343 342 341 343 344 343 343 343 342 341 341 341 341 341 342
324 324 324 324 325 324 323 322 323 323 323 323 322 323 331 330 332 337 337 336 336 336 335 334 333 333 333 334 332 330 326 328 332 337 340 340 342 342 342 342 342 342 342 343 340 339 337 339 341 341 342 342 342 344 344 344 344 345 344 344 344 342 339 338 338 339 339 339 340 338 342 342 342 344 344 342 343 343 343 341 341 341 342 341 342
320 322 323 324 324 323 322 321 321 321 322 323 323 323 323 326 321 325 330 331 334 331 330 329 331 323 330 326 326 329 325 324 332 337 335 335 336 341 341 342 342 342 342 343 340 339 339 338 340 342 342 342 342 337 338 341 344 343 344 346 338 336 336 335 336 337 338 337 339 340 342 343 343 344 344 343 343 344 344 343 343 342 343 341 342
321 321 322 323 322 322 323 322 321 321 321 321 322 324 320 319 319 321 326 330 331 328 321 325 320 321 323 322 326 324 325 324 330 334 334 333 332 338 342 343 343 342 342 342 343 341 341 340 341 343 342 342 336 334 334 333 333 340 341 335 333 334 333 334 334 335 337 337 339 342 343 344 344 344 344 343 344 345 344 343 343 343 343 342 342
317 318 321 323 321 320 321 322 320 320 321 321 321 321 321 320 319 319 320 321 321 323 321 320 320 320 320 323 321 324 322 321 330 331 330 325 324 331 337 340 341 340 341 336 338 340 338 338 340 340 335 336 334 335 335 334 334 334 333 333 333 332 332 332 333 334 334 338 340 342 344 344 345 345 345 344 344 344 344 344 344 343 343 342 342
316 319 321 320 320 319 318 318 318 319 319 322 323 323 322 323 321 319 320 319 320 320 320 320 320 319 320 322 321 323 319 320 321 321 321 322 322 323 325 332 333 332 339 330 332 333 332 332 331 333 332 334 335 335 334 334 333 334 334 333 333 333 332 333 333 334 334 334 339 341 342 343 344 345 344 345 345 345 344 343 344 344 344 343 342
322 318 317 318 319 319 318 318 319 318 318 319 321 326 322 323 325 325 321 320 320 319 320 319 320 320 320 323 322 318 318 319 320 321 322 321 322 322 323 330 331 329 335 329 331 332 331 332 332 332 332 331 333 335 334 334 332 332 333 333 333 333 332 332 332 334 334 335 336 340 341 343 343 343 344 345 344 345 345 344 344 344 344 344 343
317 317 318 320 318 318 317 317 317 317 317 318 319 319 318 320 325 329 323 322 321 319 318 319 320 320 320 323 321 318 318 318 319 321 322 321 322 322 322 327 329 329 332 330 330 330 331 332 332 332 332 332 333 334 334 334 332 333 334 335 334 333 333 333 333 333 333 334 336 339 342 341 341 342 341 342 341 341 342 344 344 344 344 343 343
317 317 318 319 320 318 319 318 318 317 317 318 318 318 317 319 324 327 325 328 322 320 318 320 320 319 323 321 327 318 318 317 318 319 321 321 322 323 323 325 327 328 330 330 330 329 329 330 331 332 333 332 333 332 333 333 332 333 334 334 335 334 334 333 333 333 334 333 335 338 339 340 340 341 340 341 342 341 340 342 342 342 344 343 343
316 317 318 318 318 321 319 319 319 318 317 318 318 317 318 318 319 320 323 329 319 320 320 321 319 320 320 321 324 321 318 318 318 319 320 321 322 323 324 324 326 327 329 329 330 329 329 329 328 329 331 332 332 331 333 332 331 333 333 334 335 335 334 333 333 333 334 334 334 337 340 341 340 338 338 339 341 341 339 340 343 341 340 341 341
316 317 318 319 319 318 319 319 319 320 320 319 318 319 319 318 318 319 322 325 318 320 323 318 319 318 319 320 321 323 320 318 319 319 321 322 323 324 324 324 324 326 327 328 330 330 328 328 328 328 328 329 331 333 334 330 330 332 332 334 335 334 334 334 333 334 334 334 334 336 339 340 339 339 337 337 337 339 341 340 340 341 340 341 339
319 318 318 318 324 321 323 324 325 329 322 322 321 318 319 319 321 318 320 319 320 324 320 318 320 318 320 319 320 323 323 319 320 321 323 323 324 324 323 323 324 325 326 326 329 332 328 328 329 329 329 329 329 331 332 331 329 330 332 332 333 333 333 333 334 333 334 335 335 335 337 339 337 338 336 337 337 338 339 339 340 340 341 342 341
317 317 318 319 320 321 322 321 322 326 325 322 325 320 319 321 321 320 320 320 324 318 318 318 323 318 320 319 319 322 325 321 320 322 324 323 323 323 322 323 323 324 326 326 326 328 328 329 329 331 331 330 329 329 330 329 328 329 330 331 331 331 332 333 332 332 334 335 335 334 335 338 338 339 338 337 337 338 336 338 339 339 339 340 341
316 317 318 322 320 320 320 319 322 323 321 321 320 320 319 321 320 320 322 324 318 318 318 317 318 320 320 318 319 323 323 322 321 321 324 322 322 322 322 324 323 324 325 326 325 325 325 325 327 329 330 329 328 328 330 328 328 328 328 328 329 330 331 331 331 333 335 335 335 335 335 336 337 338 339 340 337 336 337 338 337 339 341 342 340
317 317 319 320 322 322 322 321 322 321 323 320 322 320 321 323 323 320 325 320 317 315 321 316 318 319 319 317 318 323 321 322 323 323 322 322 322 322 322 322 323 324 324 325 324 324 324 325 327 327 330 326 325 326 329 326 328 328 327 328 330 330 331 330 332 334 337 336 336 335 336 336 336 336 338 339 337 336 336 337 337 338 340 341 341
321 316 319 319 325 322 323 323 325 320 327 322 321 324 323 321 321 320 320 319 319 315 315 316 316 315 318 316 318 322 321 321 323 323 323 321 320 321 321 321 324 323 322 324 323 323 323 323 326 325 325 325 325 327 326 325 325 326 327 329 329 331 331 330 330 333 334 335 335 335 335 336 337 336 337 337 339 335 336 337 337 337 337 337 340
318 318 319 320 321 320 326 323 323 320 318 322 318 320 321 320 321 329 319 318 318 317 315 315 315 314 316 316 317 323 320 320 323 324 324 321 320 320 320 322 323 321 321 322 323 322 322 322 323 324 323 323 325 324 325 324 326 327 328 327 328 331 330 329 330 332 333 333 333 334 335 335 335 336 339 338 337 336 336 337 338 335 335 336 337
318 318 318 319 319 320 326 321 318 318 318 321 319 321 321 321 322 322 319 319 316 316 316 316 315 314 314 316 317 322 321 320 323 324 323 322 320 319 320 321 322 320 320 320 321 323 321 321 321 324 321 321 321 322 323 323 324 326 326 326 327 329 328 329 331 332 332 331 332 334 335 335 336 338 337 338 337 336 338 338 338 336 335 336 336
318 319 319 320 319 319 321 319 318 319 318 318 320 320 320 321 319 320 327 317 317 316 316 315 315 314 314 315 317 318 325 320 321 322 321 324 320 319 319 321 322 320 320 320 320 321 321 320 320 321 321 321 320 320 321 322 323 324 326 325 327 328 328 329 331 333 330 331 333 335 335 335 336 335 336 337 336 335 335 336 337 337 334 336 336
318 318 318 318 317 318 321 323 321 318 319 320 324 321 319 319 319 319 319 320 316 318 316 315 315 314 315 315 319 318 321 321 320 321 322 320 319 319 319 319 321 320 320 319 319 321 321 320 319 320 320 321 320 320 320 321 322 322 325 325 326 327 327 330 329 328 329 330 334 336 335 334 335 335 336 337 336 334 334 333 333 335 335 335 336
317 317 319 317 316 317 317 318 319 317 317 319 318 317 316 318 317 317 319 319 316 321 319 316 315 314 318 315 317 316 317 324 320 319 321 321 318 318 318 319 319 318 317 317 317 318 318 318 319 322 318 320 320 320 320 320 319 319 323 324 323 324 327 328 327 327 328 330 333 334 333 334 333 334 336 337 336 335 334 334 334 334 334 335 337
317 317 317 316 316 318 319 317 317 319 320 317 317 316 317 316 314 315 317 314 319 324 317 317 317 316 319 316 317 317 315 318 325 320 317 321 319 318 318 318 318 319 317 317 317 319 320 319 319 320 319 317 317 319 319 320 320 320 320 321 322 324 328 326 326 327 327 328 331 332 333 333 333 333 333 335 336 336 335 334 333 333 333 333 335
316 317 317 318 316 316 317 316 316 318 317 318 320 317 315 317 316 316 317 316 316 317 317 316 319 321 317 316 317 315 315 317 323 322 319 317 318 318 317 317 317 319 318 318 319 320 317 317 318 317 318 317 316 318 317 321 318 316 316 318 319 321 325 323 325 326 326 326 328 330 330 331 331 332 333 334 335 335 336 335 334 333 333 333 333
317 319 317 317 316 316 316 316 316 317 316 318 316 315 317 319 319 316 316 318 317 318 318 320 320 317 314 315 317 315 315 317 317 324 319 318 316 317 317 316 317 319 315 315 315 315 315 315 316 317 315 316 317 319 317 319 316 317 317 317 313 314 319 321 323 324 325 325 326 327 328 327 327 330 333 333 333 333 335 335 334 333 332 332 333
318 317 317 317 317 320 316 315 317 317 317 320 323 316 321 321 321 320 320 319 320 328 318 316 316 314 314 314 314 314 315 316 317 320 319 316 316 316 317 317 316 318 314 314 314 314 315 315 315 317 315 313 312 314 320 318 317 318 314 314 313 312 311 314 317 321 322 324 324 324 325 325 326 328 330 330 332 333 334 334 334 333 332 332 332
317 318 318 319 320 320 320 318 318 318 318 323 322 319 325 320 318 321 318 317 316 313 315 316 314 320 322 316 313 315 316 317 317 317 324 317 316 316 317 317 317 317 316 314 314 314 314 314 315 315 314 312 311 312 315 319 316 320 318 316 313 312 312 316 315 317 320 323 322 323 325 322 324 327 327 328 329 331 332 332 332 331 332 333 333
318 319 320 320 320 320 319 318 316 317 319 319 319 321 324 318 318 317 314 307 312 312 314 314 314 314 314 313 314 314 315 318 316 317 319 325 315 316 316 317 317 318 317 314 313 314 315 315 315 314 314 314 312 311 311 317 318 318 317 320 321 314 314 316 314 311 320 320 321 321 322 321 322 325 325 325 326 327 331 330 331 330 331 332 333
319 319 319 320 320 320 320 319 319 318 319 320 320 324 317 316 316 316 314 313 313 311 310 313 314 314 315 315 315 314 315 316 317 317 317 322 316 315 316 316 316 316 321 314 314 313 314 316 318 314 315 316 312 310 311 311 313 315 316 316 320 321 321 316 312 312 309 316 319 318 321 320 321 323 322 322 324 325 328 330 330 330 330 331 332
320 319 319 319 320 321 321 320 320 323 320 320 320 322 319 315 315 314 317 313 315 317 314 316 317 321 320 318 315 315 313 315 316 316 317 319 323 316 315 316 316 317 322 314 314 314 314 315 317 314 315 316 313 312 311 311 310 311 317 315 316 318 319 318 317 315 312 309 312 316 319 318 320 321 322 321 323 324 326 329 330 331 330 331 332
319 320 321 321 321 321 322 320 320 321 320 320 321 320 322 318 317 316 316 320 316 318 320 323 322 318 317 317 314 314 315 314 314 316 316 316 326 319 315 315 315 317 323 315 314 313 313 313 314 314 312 313 316 314 312 311 312 311 312 313 313 314 315 316 316 318 313 310 309 310 310 316 318 320 320 321 322 324 326 329 332 333 332 332 332
320 321 321 320 320 319 321 321 320 320 321 320 322 320 320 322 316 316 317 316 319 319 318 318 317 315 315 316 314 314 315 315 313 315 316 316 315 317 317 316 316 317 324 312 313 313 313 312 313 314 313 313 313 315 314 312 312 312 311 312 312 312 312 313 313 314 314 312 309 308 310 311 310 314 319 319 321 324 325 330 331 333 333 332 333
318 319 320 321 320 320 320 321 322 320 321 321 321 321 320 320 319 317 317 318 317 316 316 318 317 316 316 317 315 314 313 314 313 317 314 315 315 322 319 314 317 325 323 313 313 314 314 312 311 311 312 312 313 312 314 314 313 313 311 312 312 312 311 310 312 312 311 309 309 308 310 311 312 312 317 319 322 324 325 329 329 331 333 332 332
Wind_Speed
5 6 6 10 11 8 7 9 8 10 11 10 11 10 9 10 10 11 11 12 12 12 11 11 10 10 10 8 9 9 8 8 8 7 7 6 6 7 6 6 5 5 3 2 2 3 2 4 6 7 8 8 9 7 5 6 8 7 7 5 6 6 6 5 9 8 9 9 12 14 15 14 13 13 15 9 6 10 9 11 11 9 7 10 14
2 4 5 6 12 10 9 10 11 9 11 11 10 10 10 11 11 12 12 12 13 13 13 12 12 11 10 10 9 8 8 8 8 8 7 7 6 6 6 6 6 4 3 1 1 3 3 5 8 8 8 8 7 4 4 7 8 7 6 6 6 6 6 7 6 7 10 11 9 12 13 12 13 12 13 12 4 4 9 11 12 7 6 12 14
2 5 5 6 12 13 10 9 9 10 10 10 10 10 11 11 11 11 11 12 12 12 12 12 12 11 11 10 10 9 8 8 8 8 8 8 7 6 6 7 7 8 5 3 1 3 5 7 8 7 10 8 4 3 5 7 7 6 6 6 6 6 7 8 6 7 9 11 10 12 13 14 13 13 12 14 9 3 4 11 11 9 9 14 13
6 5 5 6 11 11 9 6 9 11 11 10 10 10 10 11 11 11 10 11 11 11 12 12 12 11 11 10 10 9 9 8 7 8 8 8 7 7 7 7 8 5 4 5 5 4 7 7 10 13 9 4 1 4 6 6 5 5 6 5 7 7 7 8 7 9 10 11 11 10 5 5 8 13 13 13 11 6 6 10 10 10 13 12 14
7 6 6 5 6 8 9 9 11 10 10 10 10 10 10 10 10 9 10 10 11 11 11 11 11 11 11 11 10 9 9 8 8 7 8 8 8 8 8 9 8 4 2 4 5 9 12 13 11 1 6 6 3 5 7 5 5 5 3 5 6 7 7 7 7 8 9 12 10 7 4 3 4 11 12 14 11 11 12 11 11 11 12 14 14
6 6 5 6 4 4 10 11 9 10 10 10 10 10 10 10 9 10 10 11 11 12 12 12 11 11 11 11 10 10 9 8 9 9 9 8 8 10 10 9 8 7 6 6 9 12 7 3 5 7 5 5 2 5 6 5 5 6 5 6 7 7 8 7 6 6 7 8 7 3 3 5 5 5 11 10 12 14 12 11 11 11 12 13 14
7 5 5 5 5 6 11 10 10 10 10 10 10 10 10 10 10 10 11 12 12 12 12 11 11 10 10 10 10 9 9 9 8 7 8 9 9 9 8 9 9 8 8 9 8 5 4 3 2 3 3 2 2 4 5 4 4 5 6 5 5 6 7 6 5 4 6 4 3 3 2 3 5 5 11 8 12 12 12 11 11 11 13 14 14
6 5 5 5 5 6 9 9 9 9 9 9 9 9 9 9 9 10 11 11 11 12 11 11 10 10 9 9 9 8 8 9 8 7 8 8 9 9 9 8 8 9 10 8 3 4 7 6 1 4 2 4 3 3 5 5 4 4 6 5 5 5 5 5 4 2 5 3 3 3 2 2 1 4 9 13 13 13 12 12 11 14 13 15 15
6 5 5 4 3 7 8 8 9 9 8 8 8 8 8 8 9 9 10 11 11 10 10 10 9 9 8 8 8 8 8 8 8 8 8 7 8 9 9 9 9 9 9 3 1 6 6 7 3 6 3 2 4 3 2 2 3 4 4 5 4 4 4 3 2 2 4 2 2 2 2 2 4 5 11 14 14 14 13 10 11 12 12 14 15
4 4 4 3 4 7 8 8 7 7 7 6 6 7 7 8 8 9 9 9 9 9 9 9 9 8 7 7 8 8 8 8 8 9 9 9 9 9 9 9 10 10 9 6 3 5 6 5 4 8 3 4 3 2 2 2 5 2 4 3 3 3 2 1 2 3 2 2 2 2 1 2 3 4 9 14 15 14 12 12 10 11 10 15 15
4 4 4 5 5 7 7 7 7 7 6 6 7 7 8 8 8 9 9 9 9 9 9 8 8 7 7 7 7 7 7 7 7 8 8 9 9 8 8 8 8 9 9 7 5 6 8 7 1 6 6 5 4 5 4 5 8 3 3 0 1 2 3 1 2 2 1 1 1 3 5 4 1 4 9 13 13 12 12 13 12 13 14 15 16
3 4 4 4 6 7 7 7 7 6 6 6 6 7 7 7 7 8 8 8 8 8 8 8 7 7 7 7 7 7 7 7 6 6 7 7 8 8 7 7 8 9 11 10 7 5 5 6 3 6 6 7 8 8 11 11 11 8 3 5 1 2 3 3 1 2 2 2 2 2 4 6 4 2 9 11 11 10 11 12 12 13 13 14 15
4 4 4 3 4 5 4 4 4 5 5 5 6 6 7 8 8 8 8 8 9 8 8 8 8 7 7 7 7 6 6 6 6 6 6 6 7 8 8 7 7 8 9 8 7 6 3 7 3 5 8 4 5 6 6 8 1 4 3 4 1 1 2 3 2 1 2 3 3 4 6 5 6 3 4 10 11 6 6 6 7 11 14 14 13
3 3 3 3 3 3 3 3 4 4 5 6 7 7 8 8 8 8 9 10 10 8 8 7 7 7 7 7 7 6 6 6 6 6 6 6 6 6 7 8 8 8 7 7 6 5 4 4 1 6 9 5 7 8 12 6 3 6 7 8 7 2 3 2 3 1 1 3 3 4 6 9 5 11 1 6 11 10 3 3 4 10 11 14 13
2 4 4 3 3 4 5 5 5 6 6 6 7 7 7 7 7 8 9 9 8 6 7 7 7 7 7 7 6 6 6 5 6 6 6 6 6 6 7 7 8 8 7 2 2 4 3 4 4 8 12 12 7 7 11 4 4 6 5 6 6 3 3 2 2 2 1 1 1 3 7 2 7 7 11 10 7 3 7 6 4 2 8 11 12
0 2 3 2 3 4 4 6 7 7 7 7 6 6 6 6 6 7 9 8 7 7 8 9 10 10 9 7 8 8 7 6 6 6 6 6 6 6 7 7 7 7 7 6 3 3 4 3 2 7 5 6 6 6 5 3 4 4 6 5 5 3 2 3 2 2 1 1 1 2 6 6 12 2 3 7 5 3 4 5 6 3 3 11 11
0 1 1 2 3 3 3 3 4 8 7 8 8 7 7 7 6 6 7 7 9 11 11 11 12 12 12 10 10 9 9 8 7 6 5 6 6 6 6 6 6 6 7 7 5 3 3 3 4 7 3 5 4 2 4 5 5 6 5 5 3 1 1 3 2 2 2 2 1 1 2 4 5 4 8 4 5 10 6 2 6 8 7 9 12
1 0 1 2 3 3 3 3 3 3 3 5 6 7 9 10 9 8 8 9 12 12 12 12 12 13 13 12 12 11 11 10 8 7 5 5 5 5 6 5 5 7 6 5 5 5 5 3 3 4 5 3 4 6 8 8 7 4 5 3 3 3 1 1 2 1 1 1 2 2 3 6 10 10 13 10 9 13 8 10 9 8 9 12 12
2 1 1 2 3 3 3 2 2 4 5 5 5 7 12 12 12 12 12 13 12 12 12 12 13 12 13 12 12 12 12 11 10 7 7 7 5 5 4 4 4 5 6 5 4 5 7 7 5 4 3 4 4 2 4 4 4 1 3 4 1 1 3 2 2 1 0 1 2 2 3 7 7 9 11 12 12 12 12 12 12 7 7 11 12
1 1 1 1 2 3 3 5 5 5 5 6 6 6 9 12 13 13 13 13 13 12 12 12 12 12 11 11 11 8 8 8 12 8 8 8 7 5 4 4 4 5 4 5 4 5 6 7 7 5 4 1 1 2 2 2 4 2 2 3 3 2 2 2 1 1 0 1 1 1 4 5 6 9 11 12 13 13 14 13 13 11 10 12 12
2 2 2 3 3 5 4 6 5 5 5 5 5 5 7 11 9 12 13 13 12 11 11 9 8 8 8 9 9 6 5 5 6 5 9 7 8 6 4 4 4 5 4 5 4 2 3 5 6 5 4 3 2 3 4 4 6 3 1 2 3 3 1 2 1 2 1 0 1 1 5 6 7 9 13 12 12 13 15 14 15 14 14 14 14
2 3 3 2 4 4 5 5 5 5 5 5 4 4 5 7 6 5 5 6 7 7 5 4 6 4 8 6 5 4 5 5 5 7 5 6 7 9 6 6 5 5 4 5 3 1 2 2 3 3 5 5 5 2 2 3 4 5 3 1 3 2 2 2 3 3 3 2 4 5 6 8 9 10 12 13 13 17 18 17 16 16 17 15 16
2 2 4 4 3 4 3 5 4 3 5 4 4 4 5 4 4 4 4 5 5 4 4 4 5 5 5 5 5 5 5 5 5 7 6 9 7 9 8 7 7 6 6 6 4 2 1 1 2 4 5 5 3 2 2 2 3 5 5 2 1 1 1 2 3 3 4 4 4 5 6 8 10 11 12 14 15 17 19 19 18 16 16 16 17
1 1 2 2 3 5 3 3 4 4 5 4 4 5 4 4 4 3 4 4 4 4 4 4 4 5 5 5 5 5 5 5 7 10 9 6 6 7 9 8 8 8 9 5 5 5 5 6 5 4 3 3 2 3 3 3 3 3 2 2 2 1 1 1 3 3 2 4 4 6 6 8 11 13 13 14 16 17 17 17 17 19 19 17 18
1 1 2 3 3 4 4 4 3 4 4 4 3 4 3 4 3 4 3 4 4 4 4 4 4 5 6 5 5 5 5 5 5 5 5 5 5 5 5 4 4 4 7 3 3 3 3 3 3 3 2 3 3 2 2 2 2 2 1 1 1 2 2 3 3 2 2 3 4 6 5 6 9 12 13 14 15 16 16 16 18 19 18 18 19
0 4 2 3 3 3 4 3 4 4 4 4 3 3 4 4 3 2 3 4 4 4 4 5 5 5 5 5 5 6 6 6 5 6 5 6 5 5 5 4 4 3 4 2 2 2 2 2 2 2 2 2 2 1 1 1 1 1 1 1 1 2 2 2 3 2 2 3 4 6 5 6 8 10 12 13 13 15 15 16 17 19 18 17 17
2 2 1 2 2 3 3 3 4 4 4 3 4 4 4 3 3 3 4 4 3 4 5 5 5 4 5 5 5 6 6 5 6 5 6 5 5 5 5 3 4 4 4 3 3 2 2 2 2 2 2 2 2 1 1 1 1 1 2 2 2 1 1 1 1 0 0 2 3 4 5 6 9 10 10 9 9 11 13 16 17 19 19 18 17
3 1 1 1 3 3 2 4 4 4 3 3 4 5 3 4 3 3 4 2 3 4 4 5 4 5 4 5 3 4 5 6 5 5 5 5 5 5 4 5 4 4 4 2 3 3 3 2 2 2 2 2 1 1 1 1 1 1 2 2 2 2 2 2 2 1 1 2 3 2 3 4 8 10 8 10 11 10 11 14 14 15 18 19 17
3 1 0 2 1 2 3 5 4 4 3 3 4 3 4 4 4 4 3 2 3 3 4 4 5 4 4 5 4 6 5 5 5 5 4 5 5 5 5 5 5 5 5 4 3 4 3 3 2 2 2 2 2 3 2 2 2 2 2 2 2 3 3 3 3 3 2 2 3 4 4 4 5 7 8 11 10 9 10 13 10 12 14 15 16
4 2 1 1 1 3 5 4 3 3 2 4 3 5 4 5 3 3 2 2 2 3 3 4 4 4 5 4 4 4 4 4 5 5 5 5 5 5 5 5 5 5 5 5 5 4 4 4 3 2 2 2 2 3 3 3 2 2 2 2 2 2 2 2 3 3 3 2 2 3 5 5 6 5 5 8 8 10 10 12 11 12 13 13 13
3 3 2 2 1 4 4 3 4 3 4 4 2 3 2 4 3 2 2 2 2 3 4 4 5 5 5 5 5 5 4 5 5 5 4 4 4 5 5 5 6 6 5 5 5 4 4 3 4 4 4 3 2 1 2 2 3 2 2 2 2 3 3 3 3 4 4 3 3 3 3 5 2 2 9 9 12 11 9 9 10 12 14 16 16
4 4 3 1 3 4 4 2 6 7 6 2 1 2 3 2 2 2 2 1 1 2 3 4 5 5 4 5 5 5 5 5 5 5 5 5 5 5 5 5 5 5 5 5 5 4 4 4 4 4 3 3 3 2 2 2 2 2 2 2 3 3 3 3 4 4 3 3 3 3 3 3 3 3 7 10 13 10 7 10 10 13 13 16 17
2 3 3 1 4 4 4 2 6 5 3 1 2 1 2 2 2 2 1 1 1 2 4 4 4 4 4 5 5 5 4 5 5 5 5 4 5 6 6 5 5 5 5 5 5 5 5 6 6 5 4 4 4 4 4 3 3 3 3 3 2 3 3 3 3 3 4 4 3 2 2 2 3 3 2 6 7 7 11 13 12 12 15 15 16
4 2 2 3 2 3 3 3 5 4 3 2 1 3 3 2 1 1 1 1 2 2 3 4 3 4 4 4 5 5 5 5 5 5 4 5 5 5 5 6 5 5 5 5 6 5 5 6 6 5 6 5 6 6 5 5 4 4 3 3 3 3 3 3 3 3 3 4 3 3 2 2 2 2 2 2 8 12 10 10 12 12 13 14 15
2 3 4 4 3 3 3 3 4 3 1 0 2 2 2 2 2 1 2 0 1 2 3 4 4 4 4 5 5 4 5 5 5 4 5 5 5 5 6 5 5 5 5 5 5 5 5 6 6 7 6 6 5 5 5 5 5 4 4 4 4 3 3 3 2 3 3 3 3 3 2 2 3 2 2 1 1 2 6 13 13 12 8 12 12
4 5 4 3 3 3 3 4 3 3 1 0 2 1 2 2 2 1 1 1 2 3 4 4 4 4 4 5 5 4 4 5 5 5 5 5 5 5 5 5 6 5 5 6 6 7 6 5 6 6 7 7 7 7 5 6 5 5 5 5 4 4 3 3 3 3 4 3 3 3 3 2 1 2 2 2 2 4 9 8 10 9 10 10 12
5 5 5 4 3 3 3 4 3 3 2 1 2 2 2 3 3 2 0 1 3 4 4 4 4 5 5 5 5 4 4 4 5 5 5 5 5 5 5 5 5 5 6 6 6 5 6 6 6 5 5 5 7 8 7 6 6 5 6 5 4 4 3 3 3 3 3 4 3 5 5 4 4 5 3 1 2 3 5 7 4 14 16 10 12
4 5 5 6 6 4 4 4 3 1 1 2 2 3 2 2 3 3 1 2 2 3 4 4 5 4 4 4 4 4 3 5 5 5 5 4 4 4 4 6 5 5 5 6 6 5 5 5 6 5 5 5 6 7 8 7 5 5 5 5 4 3 2 2 3 3 3 4 5 4 4 4 5 5 4 3 1 1 2 4 6 4 3 10 12
4 5 4 3 3 3 2 1 2 2 2 1 1 3 2 2 2 3 3 2 3 3 2 4 4 4 4 3 4 4 4 4 5 5 5 4 5 5 5 5 5 6 6 6 6 6 6 5 6 6 5 4 5 5 6 6 5 3 4 4 3 2 1 2 2 3 3 3 5 5 4 5 5 5 4 3 1 0 2 3 3 2 4 9 8
3 3 3 3 3 1 1 0 2 2 2 2 1 2 3 3 3 2 3 3 3 3 4 3 3 5 4 4 4 4 4 4 5 4 4 4 4 4 5 5 5 5 6 7 6 6 6 7 7 6 7 6 6 6 7 6 4 2 4 4 2 2 3 3 3 3 4 4 5 4 5 4 4 4 3 4 2 1 2 3 3 3 4 7 11
2 3 3 3 3 3 3 4 3 3 3 3 1 1 0 0 1 2 0 2 2 2 3 4 4 3 4 4 4 5 4 5 4 5 5 4 4 4 5 5 5 5 5 5 5 6 5 4 3 3 6 7 7 8 9 4 5 4 3 3 4 2 3 4 5 5 6 5 5 6 5 5 5 4 4 4 4 2 3 3 3 3 4 4 5
3 3 5 5 3 3 4 4 3 3 3 3 3 2 1 1 1 1 0 2 1 2 2 3 3 4 4 3 4 4 4 4 4 3 3 4 4 4 5 5 5 4 3 4 5 5 7 7 5 5 3 4 5 6 7 4 5 4 3 4 4 4 2 4 7 7 6 6 6 5 4 4 5 5 4 4 4 4 4 4 4 3 3 4 5
4 5 3 2 3 4 4 3 3 4 3 2 3 2 2 1 1 1 2 1 1 2 3 4 2 3 4 3 3 4 4 4 5 3 3 4 4 4 4 4 5 4 5 6 6 7 5 6 6 4 5 3 3 4 7 7 3 2 1 2 2 3 2 5 4 5 5 6 5 7 6 6 7 6 5 5 5 5 4 3 3 3 3 4 5
3 2 3 4 3 3 3 3 4 3 3 3 2 1 2 2 1 2 1 0 1 2 2 3 2 3 4 4 2 3 3 3 4 3 3 4 4 4 4 4 4 4 4 5 5 6 6 6 6 5 3 5 5 5 5 6 6 4 3 3 1 1 3 4 4 3 2 4 7 5 7 6 5 6 4 5 5 5 5 4 4 4 4 4 5
4 5 4 5 4 5 5 5 4 5 4 3 2 3 3 2 2 1 1 2 1 3 3 3 3 2 2 3 3 3 3 3 3 4 2 3 3 4 4 3 4 4 3 4 4 3 3 3 4 5 6 3 5 4 5 6 8 6 3 1 2 3 1 2 3 3 3 3 6 5 6 8 7 5 4 5 4 4 5 5 5 4 4 4 3
5 6 5 4 4 4 3 3 3 3 4 4 3 4 3 3 0 1 3 2 4 4 3 2 3 3 3 3 5 3 4 2 3 3 3 2 5 4 4 4 4 4 3 3 3 4 6 6 5 3 5 5 2 6 6 5 4 6 5 3 1 1 1 2 3 2 3 1 3 4 5 7 6 5 6 6 6 6 5 6 5 4 3 3 3
7 3 3 4 4 4 4 4 5 4 3 3 4 3 3 2 3 2 2 3 2 4 3 2 3 4 3 4 4 4 3 2 3 3 3 3 3 3 4 3 3 3 2 3 5 5 4 4 4 5 4 3 4 6 6 5 5 6 6 5 6 4 3 2 3 1 4 4 2 6 5 8 6 5 8 8 7 6 6 5 5 4 4 3 3
4 3 4 3 5 6 5 5 4 4 4 3 4 4 5 4 3 3 2 3 4 4 3 3 2 2 4 4 4 4 4 2 3 4 3 2 2 3 3 3 3 2 1 4 3 3 3 4 4 3 3 4 4 5 5 5 5 4 5 6 6 5 6 5 3 2 2 3 7 5 1 8 5 4 5 8 8 7 8 7 5 4 3 4 3
3 5 6 6 4 3 3 3 4 4 4 5 5 4 4 4 4 4 3 4 4 4 2 2 3 2 4 3 3 4 3 3 2 3 3 3 1 1 2 2 2 3 1 2 2 3 4 4 5 5 5 4 4 2 4 4 4 4 5 5 4 5 4 4 4 4 5 4 2 5 8 7 6 5 8 7 7 6 6 8 6 6 3 4 4
3 3 3 3 3 3 4 4 5 5 4 5 5 5 4 3 3 4 4 5 3 3 2 4 3 2 3 4 3 4 4 3 3 2 3 2 2 1 2 2 1 2 1 1 1 2 3 4 3 4 3 5 3 3 4 2 3 3 3 3 5 4 5 5 6 5 3 4 2 5 5 6 7 6 6 8 9 7 5 6 7 6 5 3 3
2 3 3 3 3 4 4 5 6 3 4 5 5 6 5 4 5 5 5 5 4 3 3 5 4 3 4 5 3 4 3 4 3 2 3 2 2 0 2 4 2 1 1 1 1 0 2 2 2 2 4 4 3 3 3 2 2 3 4 4 4 4 3 3 2 3 3 4 4 5 5 4 4 7 6 7 7 6 4 3 5 5 5 5 3
Wind_Direction
1 23 358 357 15 25 45 63 67 63 62 63 64 63 62 65 64 60 56 53 53 51 48 48 45 42 40 38 37 40 36 37 34 32 39 30 30 29 21 24 29 22 22 21 36 56 56 56 57 58 57 54 56 60 84 97 75 82 86 102 113 112 104 107 109 124 126 126 128 127 128 135 134 138 134 135 119 128 136 133 127 121 122 124 119
349 10 12 356 17 33 41 48 53 58 62 60 63 64 59 58 56 54 53 52 49 44 40 37 36 35 35 36 41 43 36 38 39 29 32 30 27 30 27 21 21 27 29 331 22 78 78 67 65 59 57 57 52 54 63 79 85 93 114 127 109 108 114 106 109 125 116 117 122 119 127 124 138 137 128 118 132 117 143 139 131 125 126 125 119
89 32 15 6 17 15 32 38 58 58 59 60 56 57 54 52 51 49 48 48 48 46 41 36 36 35 32 30 34 36 33 35 41 38 31 27 23 27 27 27 18 27 1 334 347 75 87 70 59 55 41 44 40 33 52 64 76 90 111 118 114 117 113 112 113 123 121 117 124 124 123 122 124 120 114 122 129 169 218 142 134 131 129 125 119
46 24 19 8 8 11 18 25 54 54 59 57 58 54 53 51 49 48 51 52 52 49 43 36 34 32 32 30 32 34 33 26 32 31 35 28 24 24 25 22 31 30 0 336 341 67 72 54 41 28 357 359 52 53 68 68 80 97 98 101 112 111 113 117 128 131 128 120 122 115 101 103 118 129 127 121 133 169 216 139 132 131 130 122 119
43 29 19 11 19 349 41 43 45 55 55 53 54 54 52 51 51 51 52 53 53 50 45 40 35 31 29 29 29 33 33 27 22 29 27 27 27 30 25 21 38 41 358 18 14 42 39 39 44 113 228 236 137 83 83 85 99 104 115 121 113 113 113 117 130 129 125 121 123 116 121 116 125 127 131 139 152 169 184 140 140 138 132 127 125
37 26 25 13 4 351 42 44 48 48 49 49 49 49 48 47 46 45 47 48 46 46 44 39 36 31 28 29 29 27 34 31 28 21 16 24 26 32 21 29 26 29 27 42 36 38 52 108 172 221 239 326 72 98 94 91 105 110 104 105 109 115 115 122 128 130 126 124 108 94 128 154 147 133 144 146 169 160 140 149 146 145 138 127 129
48 32 22 6 3 19 38 39 42 46 46 45 46 47 46 45 44 43 44 45 46 45 43 41 37 33 29 27 28 26 26 37 26 26 17 22 20 34 32 24 24 25 31 40 46 54 77 70 36 306 329 286 42 89 106 107 106 110 117 112 116 116 114 117 121 117 122 89 78 85 89 108 128 131 141 151 162 143 151 153 152 146 133 138 131
43 32 13 13 10 31 43 43 47 47 45 43 44 44 44 44 43 44 46 46 45 43 40 39 36 35 31 29 27 28 28 31 37 31 21 18 19 26 36 24 21 31 41 43 64 76 59 79 46 280 255 237 249 121 115 136 133 123 126 134 118 115 115 116 129 168 90 88 78 93 87 104 81 86 163 173 146 153 157 156 155 134 147 136 127
33 23 22 12 357 35 45 45 45 48 47 46 44 45 45 42 42 42 43 44 42 41 40 39 37 36 33 29 30 31 30 31 29 31 32 30 24 23 26 23 23 40 51 76 41 57 51 61 6 292 307 342 326 103 116 161 135 127 135 141 127 109 102 117 129 139 51 42 64 72 77 135 153 163 170 155 153 154 156 157 137 140 136 133 131
17 18 13 350 348 41 45 45 48 48 50 52 49 49 47 45 45 45 45 43 42 39 38 38 39 35 31 30 30 33 34 32 32 29 30 26 31 27 26 21 22 29 46 53 52 71 65 59 284 268 302 301 340 353 164 185 192 133 140 143 146 146 138 114 146 81 54 18 27 55 30 129 143 142 160 153 154 155 154 143 145 149 152 138 130
13 4 4 4 335 42 38 37 40 39 40 40 43 42 41 40 40 41 40 39 37 35 36 36 36 34 31 28 27 29 31 33 35 32 30 30 30 36 30 21 17 28 35 43 47 59 76 79 4 302 298 319 330 320 343 23 46 326 324 287 152 176 234 212 65 59 52 23 15 79 49 335 79 134 173 157 153 153 152 151 149 142 143 134 132
3 358 9 351 3 22 30 30 28 33 34 35 38 41 41 41 40 40 39 40 39 39 36 36 32 30 27 23 24 24 27 29 33 32 30 32 30 37 39 28 17 28 33 36 41 35 65 76 359 313 332 348 337 353 32 8 11 17 343 280 212 186 208 220 41 35 22 341 340 58 151 170 240 123 175 154 154 152 157 154 148 144 137 130 130
357 355 343 333 340 341 23 36 27 31 33 38 37 38 39 37 34 32 31 31 34 31 31 30 30 28 23 20 20 19 22 23 24 25 30 28 29 27 30 30 32 37 46 40 37 20 35 89 322 333 329 357 356 50 68 50 312 260 252 291 254 210 159 198 70 42 3 352 339 5 8 5 8 345 169 161 96 56 339 129 152 140 133 130 131
348 344 321 322 320 326 40 33 37 33 30 30 31 31 32 33 31 29 26 25 31 21 31 27 27 25 22 19 15 17 20 17 17 23 25 25 31 25 23 25 27 35 54 28 25 35 8 51 90 6 337 351 11 51 63 96 263 282 331 341 335 349 84 142 128 111 332 341 351 19 37 30 340 303 322 112 118 153 175 138 155 135 135 130 134
1 316 295 314 314 335 11 16 32 22 20 24 24 26 26 24 28 31 31 32 36 25 22 20 22 19 22 20 28 29 16 22 17 25 26 25 26 30 27 27 24 23 65 62 6 55 42 357 22 68 340 340 337 37 55 29 302 326 344 316 323 304 131 101 113 131 148 341 11 43 74 74 269 310 341 105 95 153 127 149 81 336 131 132 135
46 279 298 317 340 353 2 354 2 17 13 7 11 16 14 14 15 36 40 31 37 42 45 40 36 31 32 30 28 35 32 26 22 21 22 16 16 22 25 24 19 21 24 43 28 22 44 14 337 125 146 287 328 10 67 212 267 278 274 287 319 283 204 106 51 36 80 79 87 121 118 190 212 121 70 68 174 162 78 112 150 168 203 136 134
311 267 340 330 341 346 338 337 346 10 3 359 355 4 13 15 18 31 49 36 52 56 53 47 41 39 39 36 33 31 31 30 29 19 15 360 14 15 14 18 17 18 29 32 16 16 50 27 9 55 119 199 176 29 300 259 260 226 244 274 294 289 136 125 69 34 28 350 61 70 154 222 181 144 119 208 173 95 87 19 140 163 218 148 144
344 295 308 315 327 312 324 341 359 3 1 4 11 30 48 53 52 64 70 60 59 53 49 45 42 40 41 39 34 29 25 18 21 28 9 11 11 16 10 16 20 27 29 29 21 360 352 11 33 22 63 34 78 161 222 232 235 212 204 231 287 290 306 239 106 85 44 31 93 132 197 215 174 160 160 184 162 136 171 187 188 174 200 159 153
350 350 356 327 303 321 355 359 28 47 46 48 39 37 56 57 67 75 73 67 60 54 47 42 40 37 37 38 35 26 19 13 24 23 24 32 22 29 19 23 26 34 35 27 29 352 0 13 16 27 12 4 17 218 191 244 278 248 206 184 251 281 272 301 73 103 143 80 69 143 230 224 164 161 171 157 166 165 170 163 161 171 176 167 158
6 38 30 345 348 38 44 61 56 54 57 52 43 38 42 55 64 70 68 63 58 51 45 40 34 34 29 28 29 28 14 4 14 16 31 27 31 39 38 17 22 38 44 57 58 10 359 353 4 0 7 263 244 49 35 346 341 311 252 184 180 225 302 320 128 150 133 351 94 175 245 222 182 175 177 169 177 174 170 158 161 166 173 177 170
22 36 36 27 41 68 59 69 56 55 55 56 48 41 49 52 43 54 56 57 53 47 43 33 34 21 27 19 18 16 9 359 358 17 21 16 17 29 21 14 11 23 26 54 62 348 348 348 360 343 349 359 18 75 54 30 11 17 327 196 168 107 191 238 219 220 170 107 310 208 235 212 210 192 175 181 194 175 172 168 170 174 175 183 176
18 38 42 49 85 64 71 77 69 57 62 59 55 49 40 48 45 40 47 45 47 43 26 30 20 11 14 10 8 2 4 353 353 18 17 14 2 14 16 21 7 6 16 36 75 330 334 10 331 10 38 54 69 64 52 22 8 15 9 77 88 140 176 204 184 202 193 193 221 218 212 206 204 204 187 185 192 179 172 171 175 178 177 178 184
66 51 46 51 79 89 71 80 84 81 74 64 62 53 49 48 43 37 33 42 38 36 21 19 12 6 7 4 358 349 359 357 353 13 24 17 9 15 21 23 22 22 35 39 51 49 332 10 36 43 59 42 31 39 23 1 358 5 19 36 113 133 143 194 204 198 200 202 220 220 205 203 203 203 200 192 189 186 178 176 178 183 180 182 185
127 76 81 51 79 90 82 93 92 84 80 74 66 64 59 56 47 33 32 27 27 25 20 18 10 4 0 0 357 344 357 354 355 3 16 11 3 11 18 19 15 6 23 40 20 30 20 15 25 51 34 47 57 34 27 17 13 3 13 6 336 335 242 211 212 213 211 239 232 226 210 206 208 202 204 199 196 194 188 185 179 180 181 187 184
206 286 47 67 74 101 98 77 79 72 80 64 68 64 72 71 50 35 31 18 17 19 16 12 8 6 360 358 353 354 354 355 353 359 11 3 9 14 16 17 9 354 3 27 24 10 14 9 1 20 27 35 43 38 28 23 21 360 9 352 324 321 323 327 334 335 329 309 295 270 250 230 222 212 210 208 204 201 197 192 190 185 185 188 183
187 67 64 89 91 109 117 114 81 71 75 74 65 52 54 57 53 40 40 19 15 17 10 9 10 5 1 353 359 4 358 357 360 0 6 9 10 6 10 3 10 343 352 355 15 25 24 11 339 354 357 32 53 46 31 37 360 8 16 349 8 354 358 8 6 9 2 324 308 310 293 271 257 243 221 216 215 211 203 195 195 189 189 186 185
68 105 356 125 128 108 105 106 88 82 63 67 53 48 32 23 38 53 54 13 17 24 6 8 8 6 5 353 9 356 358 357 0 3 6 5 10 4 3 356 342 345 340 343 351 7 22 15 356 342 335 2 41 26 355 7 352 18 34 17 7 14 32 5 326 329 228 290 300 307 306 294 276 261 245 243 238 238 225 208 201 195 190 187 189
98 89 72 147 135 120 106 91 88 82 66 56 58 43 22 35 23 37 37 36 38 14 358 5 8 4 357 354 356 9 3 358 359 5 358 2 12 359 2 11 4 349 332 354 347 347 358 16 355 1 347 341 330 324 330 352 24 49 54 39 31 22 7 326 311 306 295 297 315 335 345 288 270 269 251 255 239 232 253 242 217 206 195 191 190
121 139 166 140 153 118 88 76 74 72 58 55 60 38 29 44 29 33 35 43 27 352 340 0 11 349 360 357 353 1 359 1 2 359 344 16 2 4 5 6 3 357 350 354 6 345 357 357 3 343 335 330 330 329 334 346 17 50 60 55 35 19 13 347 339 333 338 346 353 341 348 328 303 262 251 266 251 242 232 256 231 211 215 202 197
180 176 171 185 85 64 75 80 92 94 55 61 32 47 25 51 29 32 10 38 359 329 353 10 355 4 355 352 356 2 11 355 354 358 14 11 0 1 11 3 1 357 3 356 347 350 345 347 5 14 356 347 358 325 333 323 337 31 45 49 32 7 8 351 339 341 340 3 26 11 356 10 1 256 262 273 272 260 245 235 237 229 218 204 221
158 178 201 210 87 79 90 137 138 100 86 78 55 53 31 58 45 50 37 16 331 338 356 357 7 1 350 353 2 6 10 7 9 360 17 18 9 12 10 354 13 6 356 355 348 348 335 332 341 342 347 346 346 322 331 327 339 8 30 32 23 14 13 11 352 351 349 11 30 30 20 13 74 86 199 230 244 248 244 242 243 220 218 217 202
172 190 196 205 90 114 141 146 74 31 355 52 55 72 68 52 76 79 54 337 315 337 349 5 358 349 354 360 1 5 12 7 12 10 22 12 13 8 2 16 10 358 360 354 354 353 346 335 341 341 328 334 330 350 4 9 1 357 350 22 21 23 17 360 4 2 356 10 30 28 24 358 337 135 198 219 224 221 253 257 242 236 223 225 213
210 169 190 153 144 139 128 125 99 111 210 229 87 47 73 67 75 93 68 5 347 352 4 351 336 340 355 358 360 0 16 11 6 17 10 15 19 16 7 7 7 358 354 356 2 4 7 7 2 354 354 353 354 356 352 13 19 4 6 27 29 23 13 8 22 2 4 21 41 46 25 21 335 335 302 222 205 226 217 235 235 234 230 225 222
172 160 131 189 174 136 131 144 115 154 192 218 82 43 34 62 82 65 85 43 348 17 349 346 335 344 350 355 1 1 14 3 7 8 18 16 18 20 2 9 358 353 7 12 19 6 15 21 7 13 12 17 11 356 356 353 358 358 23 30 37 31 9 15 33 8 359 24 37 51 39 25 358 346 334 263 188 211 212 230 238 239 237 231 223
139 148 179 198 162 149 152 152 151 184 150 82 69 54 41 43 41 88 96 96 348 13 348 350 353 342 345 2 5 360 16 6 7 14 12 24 24 18 16 351 345 360 24 15 19 19 22 24 13 13 2 12 3 360 4 359 353 1 16 32 37 34 23 350 6 357 355 3 39 50 41 24 355 358 335 20 208 176 214 219 217 240 246 252 229
188 184 192 171 171 180 160 142 162 151 199 112 74 37 24 19 12 66 54 36 12 13 357 353 338 338 355 3 6 355 18 6 6 16 30 25 32 31 10 357 3 15 26 19 26 23 3 20 21 21 9 4 2 357 2 357 356 9 32 42 43 44 19 343 9 0 353 354 32 38 41 31 1 307 347 151 139 197 227 237 193 220 237 240 245
183 177 185 170 180 197 153 150 177 190 175 83 85 58 38 34 23 25 340 23 24 356 346 353 4 4 352 6 359 350 8 15 15 27 29 26 27 37 13 11 5 25 31 23 28 16 21 11 15 22 27 359 360 355 354 355 347 7 41 48 51 51 33 352 352 355 360 29 27 36 31 25 14 14 0 271 161 191 244 248 205 202 209 210 227
191 187 185 173 184 186 165 178 185 158 121 187 117 85 56 56 36 10 26 28 351 344 337 359 8 352 352 3 350 348 5 12 23 32 44 27 32 40 23 19 14 28 35 32 22 8 25 28 14 13 11 7 11 356 346 339 338 356 35 45 46 54 35 2 1 23 29 33 32 34 25 21 19 19 11 17 81 175 214 261 269 284 323 223 228
192 186 181 189 167 167 148 203 159 134 99 76 60 82 62 44 61 50 35 12 350 333 6 356 2 350 353 346 359 360 353 9 19 21 48 35 30 30 32 12 22 27 27 27 19 10 14 18 29 1 9 11 15 353 350 328 332 350 26 34 31 30 348 359 27 38 33 9 12 39 31 24 18 14 6 11 80 255 256 247 245 223 213 236 240
184 172 177 177 173 145 128 215 141 146 129 98 81 57 51 37 36 357 25 1 341 339 341 338 339 0 339 356 359 355 357 5 25 15 34 43 35 26 27 21 26 37 34 25 11 8 4 4 7 11 6 2 14 4 2 349 337 46 28 22 31 48 53 30 34 53 46 33 33 32 29 24 7 345 360 349 349 246 238 250 250 241 226 223 219
167 172 175 203 193 182 158 202 190 164 151 142 110 110 91 9 38 43 259 265 273 307 317 319 343 338 339 351 355 356 1 4 22 26 21 30 42 25 34 25 21 42 42 27 357 0 4 353 346 13 24 20 9 0 360 5 24 0 22 18 33 30 60 46 57 41 45 40 40 36 29 20 13 2 348 339 341 320 277 270 270 259 249 237 234
207 177 195 206 199 184 187 199 170 175 179 173 163 142 196 169 164 211 196 273 344 6 333 334 345 333 339 356 350 352 360 13 5 25 28 34 33 37 34 21 24 37 50 28 27 20 8 10 358 14 24 44 22 360 359 6 30 31 3 338 355 341 16 30 46 32 38 41 45 42 23 16 12 6 354 345 347 328 313 300 286 277 265 258 246
180 192 196 180 198 201 212 187 193 182 201 184 151 169 185 167 154 221 153 280 223 230 250 265 306 327 309 350 349 351 7 4 9 16 33 23 30 43 30 19 37 24 42 31 24 23 9 8 7 11 343 11 13 4 24 41 30 332 112 22 19 350 319 9 1 28 20 32 31 34 26 28 22 13 360 348 344 331 325 301 284 261 259 269 260
170 184 186 197 203 217 210 193 196 193 192 213 189 126 137 132 80 55 44 185 274 327 314 299 349 9 330 337 357 7 360 2 3 14 38 37 43 38 20 42 36 36 59 59 32 22 15 10 5 12 36 18 6 350 17 24 41 11 38 54 351 79 357 9 348 303 329 27 29 23 22 18 4 16 12 5 341 333 330 310 303 300 285 273 271
194 199 197 200 201 210 210 197 191 192 195 207 158 145 109 63 35 19 54 7 358 2 15 347 339 313 315 333 314 351 347 2 359 3 22 42 43 47 47 41 46 29 45 65 51 24 6 14 16 28 35 46 10 346 348 16 31 33 46 21 25 45 53 278 323 264 356 13 8 13 27 13 2 4 4 359 345 334 321 319 315 311 302 296 264
211 214 205 206 204 218 210 205 200 191 194 211 160 156 160 150 101 359 330 6 333 338 321 286 305 307 283 286 313 345 350 356 3 342 11 35 34 27 32 41 37 30 44 65 60 28 18 18 14 12 35 29 103 29 2 352 21 25 30 45 35 97 316 295 52 342 327 157 0 16 32 13 355 356 356 359 359 343 325 321 319 314 308 304 290
227 202 204 216 218 220 209 200 198 201 203 196 168 159 129 143 178 196 194 209 230 272 228 234 257 278 309 303 299 313 347 3 327 332 1 40 58 30 38 34 34 19 28 40 40 21 359 12 10 25 25 16 48 57 22 332 339 22 10 11 40 27 4 52 46 259 350 323 53 1 356 2 351 357 0 359 351 350 345 334 332 323 312 310 266
203 173 213 218 218 221 205 204 203 198 196 182 182 182 176 177 178 196 202 214 207 243 255 256 207 279 313 308 327 307 320 354 317 314 342 17 51 28 30 27 43 351 42 54 48 355 15 19 37 40 19 41 53 73 51 13 53 346 349 17 15 22 18 29 41 115 142 331 331 344 126 355 351 3 1 355 351 350 353 353 344 329 315 306 296
192 199 206 215 223 225 212 199 209 210 191 185 184 201 194 183 192 186 227 233 217 242 263 294 308 332 310 303 323 303 306 313 311 291 327 354 13 32 358 9 32 6 45 51 30 29 47 35 31 30 32 30 35 69 65 36 38 23 358 7 11 17 358 22 16 60 62 357 319 7 332 333 346 20 356 351 343 349 1 4 357 357 322 323 318
223 227 231 213 220 204 209 205 224 211 198 192 190 195 201 176 178 200 216 249 241 271 312 286 279 313 307 294 300 302 293 301 310 316 311 341 14 38 2 287 300 345 44 345 360 38 20 19 26 17 11 54 24 54 80 80 53 19 46 22 34 358 15 12 21 16 41 75 40 335 337 346 339 325 339 347 337 340 354 4 18 16 359 338 331
248 220 233 224 210 208 208 216 228 200 197 199 191 204 192 188 205 205 214 233 238 235 280 284 278 296 289 288 282 269 286 261 310 309 302 291 326 68 340 300 338 336 62 257 234 111 35 12 352 49 51 48 18 53 78 76 82 50 43 49 60 54 59 53 1 4 62 24 2 349 332 326 292 315 327 329 327 328 339 354 19 19 6 354 329